period_start,C,m1,H,J0,J1,J2,J3,J4,J5,JA,JB,JC,JD,JJ,JK,JN,#
2018-02-03 00:04:44,0.50,7.09,0.00,19.06,22.50,25.89,14.45,50.42,1042.85,2041.07,1600.72,1736.00,1986.50,599.58,619.18,33.01,0000 0000 0000 0000 000000
2018-02-03 00:09:45,0.46,7.12,0.00,19.06,22.49,25.89,14.51,50.40,1042.92,2041.07,1597.47,1733.09,1983.27,599.71,619.39,33.06,0000 0000 0000 0000 000000
2018-02-03 00:14:46,0.48,7.14,0.00,19.04,22.49,25.88,14.48,50.45,1042.94,2041.17,1594.09,1730.27,1980.15,599.51,619.29,33.11,0000 0000 0000 0000 000000
2018-02-03 00:19:48,0.47,7.16,0.00,19.02,22.48,25.86,14.53,50.45,1042.96,2041.24,1590.65,1727.48,1976.87,599.87,619.72,33.16,0000 0000 0000 0000 000000
2018-02-03 00:24:49,0.50,7.19,0.00,19.01,22.47,25.85,14.56,50.35,1042.97,2041.20,1587.05,1724.55,1973.40,600.00,619.85,33.21,0000 0000 0000 0000 000000
2018-02-03 00:29:50,0.48,7.21,0.00,19.02,22.47,25.84,14.57,50.48,1042.98,2041.28,1583.66,1721.69,1970.12,599.61,619.51,33.26,0000 0000 0000 0000 000000
2018-02-03 00:34:51,0.48,7.24,0.00,19.01,22.47,25.84,14.52,50.62,1042.98,2041.51,1580.59,1719.07,1967.04,599.81,619.74,33.31,0000 0000 0000 0000 000000
2018-02-03 00:39:53,0.50,7.26,0.00,19.01,22.46,25.85,14.64,50.54,1042.98,2041.64,1577.25,1716.27,1963.88,600.44,620.24,33.36,0000 0000 0000 0000 000000
2018-02-03 00:44:55,0.47,7.29,0.00,19.00,22.45,25.83,14.53,50.56,1042.98,2041.75,1573.88,1713.45,1960.72,599.95,619.71,33.42,0000 0000 0000 0000 000000
2018-02-03 00:49:56,0.45,7.31,0.00,18.99,22.44,25.81,14.58,50.47,1042.98,2041.76,1570.62,1710.75,1957.60,600.38,620.27,33.47,0000 0000 0000 0000 000000
2018-02-03 00:54:57,0.47,7.34,0.00,18.97,22.44,25.82,14.58,50.55,1042.95,2041.88,1567.55,1708.14,1954.61,600.03,620.06,33.52,0000 0000 0000 0000 000000
2018-02-03 00:59:58,0.44,7.36,0.00,18.97,22.44,25.82,14.49,50.58,1042.92,2041.90,1564.32,1705.45,1951.54,599.85,619.82,33.57,0000 0000 0000 0000 000000
2018-02-03 01:05:00,0.48,7.38,0.00,18.96,22.44,25.80,14.53,50.63,1042.96,2041.94,1561.06,1702.76,1948.46,599.91,619.95,33.62,0000 0000 0000 0000 000000
2018-02-03 01:10:01,0.43,7.41,0.00,18.96,22.43,25.79,14.56,50.47,1042.96,2041.97,1558.11,1700.14,1945.35,600.27,620.23,33.67,0000 0000 0000 0000 000000
2018-02-03 01:15:03,0.47,7.43,0.00,18.94,22.42,25.79,14.50,50.42,1042.97,2041.97,1554.93,1697.41,1942.25,599.88,619.96,33.72,0000 0000 0000 0000 000000
2018-02-03 01:20:04,0.46,7.45,0.00,18.94,22.42,25.79,14.56,50.35,1042.98,2041.96,1552.02,1694.76,1939.08,599.82,619.94,33.77,0000 0000 0000 0000 000000
2018-02-03 01:25:05,0.47,7.47,0.00,18.93,22.42,25.79,14.57,50.38,1042.98,2041.85,1548.72,1691.95,1935.81,600.17,619.97,33.82,0000 0000 0000 0000 000000
2018-02-03 01:30:07,0.47,7.50,0.00,18.92,22.42,25.78,14.65,50.39,1042.98,2041.74,1545.37,1689.11,1932.57,600.10,620.05,33.87,0000 0000 0000 0000 000000
2018-02-03 01:35:08,0.47,7.52,0.00,18.92,22.40,25.78,14.50,50.30,1042.98,2041.67,1541.99,1686.26,1929.33,599.86,619.93,33.92,0000 0000 0000 0000 000000
2018-02-03 01:40:10,0.51,7.55,0.00,18.90,22.39,25.79,14.57,50.31,1042.96,2041.77,1538.80,1683.47,1926.09,599.87,619.91,33.97,0000 0000 0000 0000 000000
2018-02-03 01:45:11,0.48,7.58,0.00,18.91,22.39,25.79,14.52,50.35,1042.93,2041.78,1535.48,1680.63,1922.85,599.91,619.83,34.02,0000 0000 0000 0000 000000
2018-02-03 01:50:12,0.50,7.60,0.00,18.89,22.37,25.76,14.65,50.22,1042.93,2041.77,1532.23,1677.77,1919.64,600.11,620.17,34.07,0000 0000 0000 0000 000000
2018-02-03 01:55:14,0.48,7.63,0.00,18.89,22.37,25.75,14.56,50.20,1042.92,2041.91,1529.06,1675.04,1916.48,599.93,619.93,34.12,0000 0000 0000 0000 000000
2018-02-03 02:00:15,0.49,7.65,0.00,18.89,22.35,25.74,14.52,50.27,1042.82,2041.89,1525.77,1672.31,1913.41,600.05,620.01,34.17,0000 0000 0000 0000 000000
2018-02-03 02:05:16,0.48,7.68,0.00,18.89,22.34,25.72,14.54,50.27,1042.57,2041.91,1522.55,1669.58,1910.30,599.95,619.86,34.22,0000 0000 0000 0000 000000
2018-02-03 02:10:17,0.49,7.70,0.00,18.89,22.33,25.71,14.58,50.24,1042.51,2041.94,1519.27,1666.84,1907.08,600.25,620.11,34.28,0000 0000 0000 0000 000000
2018-02-03 02:15:19,0.51,7.73,0.00,18.89,22.32,25.71,14.54,50.25,1042.51,2041.97,1516.01,1664.03,1903.84,599.90,619.79,34.33,0000 0000 0000 0000 000000
2018-02-03 02:20:20,0.49,7.75,0.00,18.90,22.31,25.71,14.56,50.28,1042.50,2041.97,1512.76,1661.27,1900.59,599.97,619.76,34.38,0000 0000 0000 0000 000000
2018-02-03 02:25:21,0.52,7.78,0.00,18.91,22.29,25.69,14.52,50.17,1042.52,2041.97,1509.38,1658.45,1897.31,600.04,619.90,34.43,0000 0000 0000 0000 000000
2018-02-03 02:30:23,0.51,7.80,0.00,18.91,22.29,25.69,14.52,50.23,1042.53,2041.98,1505.95,1655.61,1894.11,600.00,619.69,34.48,0000 0000 0000 0000 000000
2018-02-03 02:35:25,0.51,7.83,0.00,18.90,22.27,25.68,14.56,50.19,1042.52,2041.99,1502.52,1652.77,1890.90,600.24,619.99,34.53,0000 0000 0000 0000 000000
2018-02-03 02:40:26,0.51,7.86,0.00,18.90,22.27,25.68,14.58,50.21,1042.51,2041.98,1499.09,1649.97,1887.68,600.09,619.80,34.58,0000 0000 0000 0000 000000
2018-02-03 02:45:27,0.52,7.88,0.00,18.90,22.25,25.67,14.51,50.18,1042.53,2041.98,1495.77,1647.13,1884.41,600.07,619.92,34.63,0000 0000 0000 0000 000000
2018-02-03 02:50:28,0.50,7.91,0.00,18.90,22.24,25.66,14.55,50.11,1042.56,2041.98,1492.50,1644.30,1881.13,599.98,619.81,34.68,0000 0000 0000 0000 000000
2018-02-03 02:55:30,0.49,7.93,0.00,18.90,22.24,25.65,14.60,50.41,1042.52,2041.99,1489.28,1641.55,1877.91,600.11,619.85,34.73,0000 0000 0000 0000 000000
2018-02-03 03:00:31,0.50,7.96,0.67,18.92,22.23,25.66,14.55,50.39,1042.52,2041.99,1486.03,1638.74,1874.72,599.86,619.66,34.78,0000 0000 0000 0000 000000
2018-02-03 03:05:32,0.52,7.98,1.00,18.92,22.22,25.65,14.52,50.39,1042.50,2041.99,1482.75,1635.97,1871.50,600.02,619.77,34.83,0000 0000 0000 0000 000000
2018-02-03 03:10:34,0.52,8.01,1.00,18.92,22.22,25.62,14.47,50.40,1042.50,2041.99,1479.46,1633.15,1868.33,599.92,619.75,34.88,0000 0000 0000 0000 000000
2018-02-03 03:15:35,0.49,8.04,1.00,18.90,22.22,25.62,14.51,50.19,1042.50,2041.99,1476.32,1630.42,1865.15,599.84,619.71,34.93,0000 0000 0000 0000 000000
2018-02-03 03:20:36,0.49,8.06,1.00,18.92,22.20,25.61,14.60,50.25,1042.50,2041.99,1473.18,1627.65,1861.97,600.09,619.82,34.98,0000 0000 0000 0000 000000
2018-02-03 03:25:37,0.50,8.09,1.00,18.91,22.19,25.63,14.42,50.17,1042.51,2041.99,1470.04,1624.94,1858.85,599.88,619.68,35.03,0000 0000 0000 0000 000000
2018-02-03 03:30:39,0.52,8.11,1.00,18.91,22.19,25.62,14.48,50.43,1042.50,2041.99,1466.77,1622.16,1855.77,600.20,619.93,35.08,0000 0000 0000 0000 000000
2018-02-03 03:35:40,0.51,8.14,1.00,18.90,22.19,25.61,14.57,50.49,1042.51,2041.99,1463.43,1619.39,1852.76,600.15,619.89,35.13,0000 0000 0000 0000 000000
2018-02-03 03:40:41,0.51,8.16,1.00,18.89,22.17,25.61,14.62,50.47,1042.50,2042.00,1460.26,1616.62,1849.58,600.21,620.08,35.19,0000 0000 0000 0000 000000
2018-02-03 03:45:43,0.51,8.19,1.00,18.89,22.17,25.60,14.53,50.47,1042.50,2042.00,1457.14,1613.92,1846.48,599.81,619.65,35.24,0000 0000 0000 0000 000000
2018-02-03 03:50:44,0.51,8.22,1.00,18.90,22.17,25.61,14.57,50.38,1042.50,2042.00,1453.96,1611.21,1843.33,600.24,619.98,35.29,0000 0000 0000 0000 000000
2018-02-03 03:55:45,0.50,8.24,1.00,18.89,22.16,25.61,14.57,50.48,1042.50,2042.00,1450.71,1608.51,1840.27,600.13,619.90,35.34,0000 0000 0000 0000 000000
2018-02-03 04:00:46,0.51,8.27,1.00,18.90,22.15,25.60,14.52,50.39,1042.50,2042.00,1447.60,1605.81,1837.15,600.22,619.99,35.39,0000 0000 0000 0000 000000
2018-02-03 04:05:47,0.50,8.29,1.00,18.92,22.14,25.60,14.58,50.51,1042.50,2042.00,1444.50,1603.12,1834.05,599.99,619.73,35.44,0000 0000 0000 0000 000000
2018-02-03 04:10:49,0.51,8.32,1.00,18.91,22.14,25.60,14.54,50.48,1042.50,2042.00,1441.39,1600.43,1830.98,599.92,619.67,35.49,0000 0000 0000 0000 000000
2018-02-03 04:15:50,0.51,8.34,1.00,18.92,22.14,25.60,14.59,50.56,1042.49,2041.99,1438.14,1597.91,1827.91,599.92,619.65,35.54,0000 0000 0000 0000 000000
2018-02-03 04:20:51,0.51,8.37,1.00,18.92,22.14,25.60,14.55,50.49,1042.50,2041.99,1435.02,1595.25,1824.85,600.01,619.85,35.59,0000 0000 0000 0000 000000
2018-02-03 04:25:52,0.50,8.39,1.00,18.91,22.14,25.60,14.58,50.59,1042.50,2041.99,1431.92,1592.61,1821.80,600.03,619.80,35.64,0000 0000 0000 0000 000000
2018-02-03 04:30:54,0.51,8.42,1.00,18.90,22.14,25.59,14.48,50.63,1042.50,2041.99,1428.82,1589.96,1818.76,599.88,619.62,35.69,0000 0000 0000 0000 000000
2018-02-03 04:35:55,0.49,8.45,1.00,18.89,22.14,25.61,14.46,50.58,1042.50,2041.99,1425.82,1587.36,1815.80,599.88,619.70,35.74,0000 0000 0000 0000 000000
2018-02-03 04:40:56,0.51,8.47,1.00,18.88,22.14,25.60,14.54,50.64,1042.50,2042.00,1422.68,1584.78,1812.82,599.91,619.70,35.79,0000 0000 0000 0000 000000
2018-02-03 04:45:58,0.50,8.50,1.00,18.89,22.14,25.60,14.55,50.70,1042.50,2042.01,1419.62,1582.15,1809.80,599.97,619.83,35.84,0000 0000 0000 0000 000000
2018-02-03 04:50:59,0.50,8.52,1.00,18.88,22.13,25.59,14.54,50.72,1042.50,2042.00,1416.64,1579.52,1806.79,599.92,619.76,35.89,0000 0000 0000 0000 000000
2018-02-03 04:56:00,0.51,8.55,1.00,18.87,22.13,25.60,14.52,50.63,1042.50,2042.00,1413.50,1576.93,1803.85,600.01,619.81,35.94,0000 0000 0000 0000 000000
2018-02-03 05:01:01,0.49,8.57,1.00,18.87,22.13,25.60,14.54,50.65,1042.50,2042.00,1410.53,1574.36,1800.90,600.15,620.08,35.99,0000 0000 0000 0000 000000
2018-02-03 05:06:03,0.50,8.60,1.00,18.85,22.13,25.58,14.55,50.65,1042.50,2042.00,1407.58,1571.82,1797.94,599.83,619.69,36.04,0000 0000 0000 0000 000000
2018-02-03 05:11:04,0.51,8.62,1.00,18.83,22.13,25.58,14.61,50.72,1042.50,2042.00,1404.59,1569.25,1795.02,600.06,619.92,36.09,0000 0000 0000 0000 000000
2018-02-03 05:16:06,0.50,8.65,1.00,18.81,22.13,25.59,14.61,50.73,1042.50,2042.00,1401.57,1566.62,1792.15,600.15,620.03,36.15,0000 0000 0000 0000 000000
2018-02-03 05:21:07,0.51,8.68,1.00,18.81,22.13,25.58,14.54,50.75,1042.50,2042.00,1398.65,1564.04,1789.25,600.05,620.06,36.20,0000 0000 0000 0000 000000
2018-02-03 05:26:08,0.49,8.71,1.00,18.79,22.13,25.58,14.62,50.74,1042.51,2042.00,1395.70,1561.51,1786.35,600.36,620.30,36.25,0000 0000 0000 0000 000000
2018-02-03 05:31:10,0.50,8.73,1.00,18.79,22.12,25.56,14.59,50.68,1042.50,2042.00,1392.79,1558.97,1783.39,599.99,619.91,36.30,0000 0000 0000 0000 000000
2018-02-03 05:36:11,0.49,8.75,1.00,18.77,22.12,25.55,14.56,50.75,1042.51,2042.00,1389.85,1556.47,1780.52,599.90,619.97,36.35,0000 0000 0000 0000 000000
2018-02-03 05:41:12,0.50,8.78,1.00,18.77,22.12,25.54,14.60,50.72,1042.51,2042.00,1386.96,1554.00,1777.64,600.05,620.19,36.40,0000 0000 0000 0000 000000
2018-02-03 05:46:14,0.49,8.81,1.00,18.77,22.12,25.54,14.63,50.82,1042.52,2042.00,1384.08,1551.49,1774.83,600.18,620.31,36.45,0000 0000 0000 0000 000000
2018-02-03 05:51:15,0.49,8.83,1.00,18.77,22.12,25.55,14.52,50.76,1042.51,2042.01,1381.19,1549.09,1772.06,599.92,619.89,36.50,0000 0000 0000 0000 000000
2018-02-03 05:56:16,0.49,8.86,1.00,18.75,22.12,25.53,14.54,50.86,1042.54,2042.01,1378.28,1546.59,1769.21,600.32,620.35,36.55,0000 0000 0000 0000 000000
2018-02-03 06:01:17,0.50,8.88,1.00,18.75,22.11,25.53,14.58,50.75,1042.55,2042.01,1375.44,1544.17,1766.39,600.49,620.50,36.60,0000 0000 0000 0000 000000
2018-02-03 06:06:19,0.49,8.91,1.00,18.74,22.10,25.53,14.55,50.85,1042.55,2042.01,1372.59,1541.73,1763.59,599.97,620.14,36.65,0000 0000 0000 0000 000000
2018-02-03 06:11:20,0.48,8.93,1.00,18.76,22.09,25.51,14.55,50.84,1042.59,2042.03,1369.80,1539.31,1760.84,599.94,620.06,36.70,0000 0000 0000 0000 000000
2018-02-03 06:16:21,0.50,8.96,1.00,18.76,22.09,25.51,14.61,50.69,1042.63,2042.03,1367.03,1536.92,1758.02,599.87,620.04,36.75,0000 0000 0000 0000 000000
2018-02-03 06:21:23,0.46,8.98,1.00,18.73,22.09,25.50,14.59,50.60,1042.74,2042.02,1364.26,1534.67,1755.24,600.04,620.40,36.80,0000 0000 0000 0000 000000
2018-02-03 06:26:24,0.48,9.00,1.00,18.71,22.09,25.51,14.44,50.54,1042.82,2042.03,1361.56,1532.43,1752.49,599.82,620.29,36.85,0000 0000 0000 0000 000000
2018-02-03 06:31:26,0.48,9.03,0.17,18.71,22.07,25.50,14.57,50.65,1042.88,2042.03,1358.79,1530.05,1749.74,599.95,620.39,36.90,0000 0000 0000 0000 000000
2018-02-03 06:36:27,0.50,9.05,0.00,18.70,22.07,25.49,14.64,50.79,1042.93,2042.03,1355.88,1527.66,1747.09,600.40,620.86,36.95,0000 0000 0000 0000 000000
2018-02-03 06:41:28,0.50,9.08,0.00,18.69,22.06,25.48,14.59,50.67,1042.96,2042.05,1353.16,1525.27,1744.35,599.93,620.27,37.01,0000 0000 0000 0000 000000
2018-02-03 06:46:29,0.49,9.10,0.00,18.68,22.05,25.46,14.58,50.67,1042.98,2042.05,1350.44,1522.92,1741.56,600.11,620.66,37.06,0000 0000 0000 0000 000000
2018-02-03 06:51:31,0.48,9.13,0.00,18.69,22.04,25.47,14.60,50.52,1042.98,2042.06,1347.59,1520.51,1738.83,600.13,620.70,37.11,0000 0000 0000 0000 000000
2018-02-03 06:56:32,0.51,9.16,0.00,18.67,22.04,25.46,14.48,50.59,1042.98,2042.06,1344.83,1518.13,1736.11,599.62,620.17,37.16,0000 0000 0000 0000 000000
2018-02-03 07:01:34,0.49,9.18,0.00,18.67,22.02,25.45,14.57,50.80,1042.98,2042.06,1342.25,1515.77,1733.40,600.04,620.70,37.21,0000 0000 0000 0000 000000
2018-02-03 07:06:35,0.49,9.20,0.00,18.65,22.02,25.45,14.54,50.73,1042.99,2042.15,1339.57,1513.38,1730.65,599.87,620.44,37.26,0000 0000 0000 0000 000000
2018-02-03 07:11:36,0.50,9.23,0.00,18.65,22.01,25.45,14.58,50.67,1042.99,2042.10,1336.77,1511.06,1727.95,599.85,620.50,37.31,0000 0000 0000 0000 000000
2018-02-03 07:16:37,0.51,9.26,0.00,18.64,21.99,25.40,14.45,50.58,1042.99,2042.30,1334.02,1508.68,1725.38,599.58,620.23,37.36,0000 0000 0000 0000 000000
2018-02-03 07:21:39,0.50,9.28,0.00,18.65,21.99,25.40,14.61,50.71,1042.99,2042.26,1331.21,1506.28,1722.68,600.18,620.91,37.41,0000 0000 0000 0000 000000
2018-02-03 07:26:40,0.50,9.31,0.00,18.61,21.98,25.41,14.53,50.67,1043.00,2042.48,1328.55,1504.02,1720.04,600.02,620.61,37.46,0000 0000 0000 0000 000000
2018-02-03 07:31:41,0.49,9.33,0.90,18.58,21.97,25.40,14.60,50.61,1043.05,2042.58,1326.14,1501.69,1717.34,599.90,620.66,37.51,0000 0000 0000 0000 000000
2018-02-03 07:36:42,0.48,9.36,1.00,18.58,21.97,25.39,14.63,50.61,1043.15,2042.47,1323.39,1499.34,1714.63,600.31,621.18,37.56,0000 0000 0000 0000 000000
2018-02-03 07:41:43,0.52,9.38,1.00,18.58,21.95,25.38,14.56,50.67,1043.10,2042.38,1320.44,1497.00,1712.04,600.08,621.02,37.61,0000 0000 0000 0000 000000
2018-02-03 07:46:45,0.51,9.41,1.00,18.57,21.94,25.39,14.59,50.75,1043.06,2042.61,1317.67,1494.64,1709.37,600.28,621.07,37.66,0000 0000 0000 0000 000000
2018-02-03 07:51:46,0.49,9.43,1.00,18.57,21.94,25.37,14.58,50.64,1043.15,2042.74,1315.07,1492.35,1706.72,599.77,620.67,37.71,0000 0000 0000 0000 000000
2018-02-03 07:56:47,0.56,9.46,1.00,18.54,21.93,25.37,14.65,50.82,1043.26,2042.88,1312.30,1490.01,1704.07,599.97,621.08,37.76,0000 0000 0000 0000 000000
2018-02-03 08:01:49,0.50,9.49,1.00,18.55,21.92,25.35,14.62,50.81,1043.35,2042.93,1309.47,1487.65,1701.35,600.11,621.02,37.81,0000 0000 0000 0000 000000
2018-02-03 08:06:50,0.52,9.51,1.00,18.54,21.92,25.35,14.59,50.85,1043.34,2042.94,1306.67,1485.28,1698.64,599.71,620.76,37.86,0000 0000 0000 0000 000000
2018-02-03 08:11:52,0.51,9.54,1.00,18.52,21.90,25.35,14.65,50.88,1043.28,2042.96,1303.96,1482.96,1695.96,599.92,621.00,37.92,0000 0000 0000 0000 000000
2018-02-03 08:16:53,0.51,9.57,1.00,18.50,21.89,25.34,14.62,50.97,1043.29,2042.96,1301.24,1480.57,1693.21,600.00,621.06,37.97,0000 0000 0000 0000 000000
2018-02-03 08:21:55,0.50,9.59,1.00,18.49,21.89,25.33,14.59,50.98,1043.31,2042.98,1298.53,1478.24,1690.50,600.16,621.27,38.02,0000 0000 0000 0000 000000
2018-02-03 08:26:56,0.53,9.62,1.00,18.50,21.87,25.33,14.52,50.91,1043.32,2042.98,1295.76,1475.87,1687.78,600.03,621.22,38.07,0000 0000 0000 0000 000000
2018-02-03 08:31:57,0.49,9.64,1.00,18.49,21.87,25.31,14.56,50.87,1043.37,2042.96,1293.16,1473.55,1685.09,599.83,621.07,38.12,0000 0000 0000 0000 000000
2018-02-03 08:36:59,0.48,9.67,1.00,18.47,21.86,25.29,14.50,50.75,1043.44,2042.97,1290.52,1471.35,1682.39,599.86,621.08,38.17,0000 0000 0000 0000 000000
2018-02-03 08:42:00,0.52,9.69,1.00,18.47,21.84,25.30,14.65,50.84,1043.47,2042.98,1287.78,1469.10,1679.77,600.01,621.34,38.22,0000 0000 0000 0000 000000
2018-02-03 08:47:02,0.51,9.72,1.00,18.46,21.84,25.29,14.60,50.84,1043.43,2042.98,1285.13,1466.76,1677.02,600.12,621.41,38.27,0000 0000 0000 0000 000000
2018-02-03 08:52:03,0.51,9.75,1.00,18.44,21.83,25.25,14.65,50.93,1043.38,2042.98,1282.40,1464.42,1674.35,600.12,621.45,38.32,0000 0000 0000 0000 000000
2018-02-03 08:57:04,0.53,9.78,1.00,18.44,21.82,25.25,14.63,51.05,1043.32,2042.99,1279.57,1462.05,1671.68,599.88,621.10,38.37,0000 0000 0000 0000 000000
2018-02-03 09:02:06,0.50,9.80,1.00,18.44,21.82,25.25,14.61,51.07,1043.26,2042.99,1276.97,1459.70,1668.98,599.95,621.19,38.42,0000 0000 0000 0000 000000
2018-02-03 09:07:07,0.50,9.82,1.00,18.44,21.80,25.23,14.59,51.00,1043.28,2042.99,1274.41,1457.41,1666.31,600.09,621.32,38.47,0000 0000 0000 0000 000000
2018-02-03 09:12:09,0.53,9.85,1.00,18.43,21.79,25.22,14.53,50.97,1043.37,2042.99,1271.69,1455.08,1663.60,599.90,621.31,38.52,0000 0000 0000 0000 000000
2018-02-03 09:17:10,0.50,9.88,1.00,18.42,21.79,25.21,14.54,50.93,1043.37,2042.99,1268.96,1452.77,1661.08,599.93,621.25,38.57,0000 0000 0000 0000 000000
2018-02-03 09:22:11,0.54,9.91,1.00,18.41,21.77,25.19,14.67,51.17,1043.40,2042.99,1266.22,1450.41,1658.40,600.49,621.88,38.62,0000 0000 0000 0000 000000
2018-02-03 09:27:12,0.52,9.93,1.00,18.40,21.77,25.21,14.74,51.00,1043.44,2043.00,1263.52,1448.10,1655.71,600.33,621.76,38.67,0000 0000 0000 0000 000000
2018-02-03 09:32:14,0.54,9.96,1.00,18.37,21.76,25.21,14.66,51.08,1043.44,2043.00,1260.71,1445.74,1653.10,600.07,621.74,38.72,0000 0000 0000 0000 000000
2018-02-03 09:37:15,0.52,9.99,1.00,18.38,21.74,25.19,14.59,51.02,1043.42,2043.01,1258.02,1443.41,1650.45,599.95,621.47,38.78,0000 0000 0000 0000 000000
2018-02-03 09:42:17,0.54,10.02,1.00,18.37,21.74,25.17,14.58,51.17,1043.46,2043.03,1255.26,1441.11,1647.83,599.72,621.17,38.83,0000 0000 0000 0000 000000
2018-02-03 09:47:18,0.50,10.04,1.00,18.37,21.74,25.17,14.65,51.07,1043.47,2043.04,1252.80,1438.81,1645.13,600.27,621.84,38.88,0000 0000 0000 0000 000000
2018-02-03 09:52:19,0.53,10.07,1.00,18.36,21.72,25.16,14.46,50.86,1043.47,2043.02,1250.17,1436.48,1642.45,599.65,621.28,38.93,0000 0000 0000 0000 000000
2018-02-03 09:57:20,0.53,10.09,1.00,18.32,21.72,25.14,14.64,51.02,1043.47,2043.06,1247.56,1434.20,1639.85,599.93,621.56,38.98,0000 0000 0000 0000 000000
2018-02-03 10:02:22,0.54,10.12,1.00,18.33,21.72,25.13,14.58,50.98,1043.47,2043.09,1244.77,1431.93,1637.30,599.61,621.16,39.03,0000 0000 0000 0000 000000
2018-02-03 10:07:23,0.50,10.15,1.00,18.31,21.70,25.13,14.58,50.86,1043.47,2043.18,1242.38,1429.68,1634.64,599.79,621.49,39.08,0000 0000 0000 0000 000000
2018-02-03 10:12:24,0.53,10.18,1.00,18.29,21.69,25.12,14.70,50.89,1043.47,2043.12,1239.71,1427.39,1632.00,600.23,621.72,39.13,0000 0000 0000 0000 000000
2018-02-03 10:17:26,0.54,10.20,1.00,18.28,21.69,25.11,14.71,50.97,1043.47,2043.06,1236.98,1425.10,1629.32,600.48,622.19,39.18,0000 0000 0000 0000 000000
2018-02-03 10:22:27,0.52,10.23,1.00,18.28,21.67,25.10,14.62,50.95,1043.47,2043.08,1234.33,1422.80,1626.69,599.96,621.69,39.23,0000 0000 0000 0000 000000
2018-02-03 10:27:28,0.51,10.26,1.00,18.26,21.67,25.08,14.65,50.90,1043.47,2043.15,1231.84,1420.56,1624.13,600.07,621.80,39.28,0000 0000 0000 0000 000000
2018-02-03 10:32:30,0.57,10.28,1.00,18.25,21.65,25.10,14.60,50.86,1043.47,2043.37,1229.25,1418.31,1621.50,599.88,621.62,39.33,0000 0000 0000 0000 000000
2018-02-03 10:37:31,0.51,10.31,1.00,18.23,21.64,25.08,14.63,50.91,1043.47,2043.31,1226.57,1416.05,1618.93,600.45,622.25,39.38,0000 0000 0000 0000 000000
2018-02-03 10:42:33,0.54,10.34,1.00,18.21,21.63,25.08,14.62,51.13,1043.47,2043.41,1224.01,1413.80,1616.32,599.91,621.70,39.43,0000 0000 0000 0000 000000
2018-02-03 10:47:34,0.59,10.37,1.00,18.22,21.62,25.07,14.60,51.19,1043.47,2043.68,1221.27,1411.50,1613.76,599.72,621.49,39.48,0000 0000 0000 0000 000000
2018-02-03 10:52:36,0.55,10.40,1.00,18.23,21.60,25.03,14.48,51.10,1043.47,2043.92,1218.60,1409.26,1611.19,599.48,621.32,39.53,0000 0000 0000 0000 000000
2018-02-03 10:57:37,0.53,10.42,1.00,18.20,21.59,25.03,14.67,50.97,1043.47,2043.97,1216.18,1407.14,1608.58,600.03,621.81,39.59,0000 0000 0000 0000 000000
2018-02-03 11:02:39,0.56,10.45,1.00,18.20,21.58,25.01,14.59,51.05,1043.47,2043.98,1213.48,1404.81,1605.99,599.80,621.62,39.64,0000 0000 0000 0000 000000
2018-02-03 11:07:40,0.53,10.48,1.00,18.19,21.57,25.01,14.58,50.99,1043.47,2043.99,1210.77,1402.52,1603.41,600.00,621.92,39.69,0000 0000 0000 0000 000000
2018-02-03 11:12:41,0.51,10.51,1.00,18.16,21.56,24.99,14.63,50.97,1043.47,2043.99,1208.36,1400.31,1600.80,600.00,621.93,39.74,0000 0000 0000 0000 000000
2018-02-03 11:17:42,0.54,10.53,1.00,18.13,21.55,24.98,14.60,50.96,1043.47,2043.98,1205.93,1398.10,1598.38,599.89,621.88,39.79,0000 0000 0000 0000 000000
2018-02-03 11:22:44,0.53,10.56,1.00,18.15,21.54,24.97,14.60,50.94,1043.47,2043.98,1203.37,1395.91,1595.88,600.18,622.20,39.84,0000 0000 0000 0000 000000
2018-02-03 11:27:45,0.54,10.59,1.00,18.14,21.53,24.97,14.64,50.99,1043.47,2043.99,1200.71,1393.61,1593.30,599.82,621.82,39.89,0000 0000 0000 0000 000000
2018-02-03 11:32:46,0.54,10.61,1.00,18.11,21.52,24.97,14.70,51.07,1043.47,2043.99,1198.13,1391.38,1590.77,600.13,622.26,39.94,0000 0000 0000 0000 000000
2018-02-03 11:37:48,0.55,10.64,1.00,18.11,21.52,24.94,14.58,50.92,1043.47,2043.99,1195.52,1389.11,1588.12,599.80,621.88,39.99,0000 0000 0000 0000 000000
2018-02-03 11:42:49,0.55,10.67,1.00,18.09,21.50,24.94,14.57,51.12,1043.48,2043.99,1192.94,1386.91,1585.53,599.86,621.83,40.04,0000 0000 0000 0000 000000
2018-02-03 11:47:50,0.55,10.70,1.00,18.09,21.49,24.92,14.57,50.93,1043.48,2043.99,1190.30,1384.60,1582.97,600.04,622.14,40.09,0000 0000 0000 0000 000000
2018-02-03 11:52:52,0.53,10.72,1.00,18.09,21.49,24.90,14.60,50.99,1043.48,2043.99,1187.79,1382.37,1580.39,599.99,622.03,40.14,0000 0000 0000 0000 000000
2018-02-03 11:57:53,0.56,10.75,1.00,18.08,21.47,24.89,14.57,50.97,1043.47,2044.00,1185.20,1380.18,1577.90,599.75,621.92,40.19,0000 0000 0000 0000 000000
2018-02-03 12:02:54,0.54,10.78,1.00,18.08,21.47,24.88,14.57,50.99,1043.47,2044.00,1182.66,1377.95,1575.29,599.81,621.81,40.24,0000 0000 0000 0000 000000
2018-02-03 12:07:56,0.56,10.81,1.00,18.08,21.45,24.87,14.59,51.11,1043.48,2044.02,1180.03,1375.76,1572.77,599.96,622.07,40.29,0000 0000 0000 0000 000000
2018-02-03 12:12:57,0.56,10.84,1.00,18.08,21.44,24.88,14.65,51.33,1043.47,2044.03,1177.36,1373.43,1570.21,599.80,621.97,40.34,0000 0000 0000 0000 000000
2018-02-03 12:17:58,0.58,10.87,1.00,18.07,21.43,24.88,14.67,51.42,1043.47,2044.04,1174.70,1371.14,1567.62,600.29,622.44,40.39,0000 0000 0000 0000 000000
2018-02-03 12:22:59,0.55,10.89,1.00,18.06,21.42,24.85,14.60,51.37,1043.47,2044.12,1172.23,1368.90,1564.99,600.26,622.21,40.44,0000 0000 0000 0000 000000
2018-02-03 12:28:01,0.57,10.92,1.00,18.04,21.42,24.85,14.63,51.48,1043.47,2044.12,1169.61,1366.66,1562.34,599.82,621.92,40.49,0000 0000 0000 0000 000000
2018-02-03 12:33:02,0.57,10.95,1.00,18.01,21.40,24.82,14.57,51.26,1043.45,2044.13,1167.05,1364.39,1559.78,599.93,622.11,40.55,0000 0000 0000 0000 000000
2018-02-03 12:38:03,0.57,10.98,1.00,17.99,21.39,24.82,14.61,51.23,1043.35,2044.29,1164.56,1362.18,1557.23,599.69,621.98,40.60,0000 0000 0000 0000 000000
2018-02-03 12:43:05,0.61,11.01,1.00,17.99,21.39,24.80,14.66,51.35,1043.18,2044.58,1161.88,1359.95,1554.71,599.90,621.94,40.65,0000 0000 0000 0000 000000
2018-02-03 12:48:06,0.56,11.04,1.00,17.99,21.38,24.81,14.65,51.28,1043.20,2044.77,1159.53,1357.76,1552.16,599.93,622.08,40.70,0000 0000 0000 0000 000000
2018-02-03 12:53:08,0.52,11.07,1.00,17.97,21.37,24.79,14.60,51.28,1043.25,2044.57,1157.02,1355.53,1549.59,599.91,622.16,40.75,0000 0000 0000 0000 000000
2018-02-03 12:58:09,0.58,11.10,1.00,17.96,21.37,24.79,14.66,51.19,1043.31,2044.72,1154.43,1353.36,1547.10,600.11,622.42,40.80,0000 0000 0000 0000 000000